Weather History for Tucumcari, NM

Change the Weather History Date:

Monday, January 7, 2013

  Actual Average Record
Temperature  
Mean Temperature 40 °F -  
Max Temperature 52 °F 49 °F 75 °F (2006)
Min Temperature 27 °F 20 °F -6 °F (1913)
Degree Days  
Heating Degree Days 26    
Moisture  
Dew Point 21 °F    
Average Humidity 55    
Maximum Humidity 75    
Minimum Humidity 28    
Precipitation  
Precipitation 0.00 in - - ()
Sea Level Pressure  
Sea Level Pressure 30.04 in    
Wind  
Wind Speed 5 mph (SW)    
Max Wind Speed 13 mph    
Max Gust Speed -    
Visibility 10 miles    
Events      
Averages and records for this station are not official NWS values.
T = Trace of Precipitation, MM = Missing Value Source: NWS Daily Summary

Daily Weather History Graph

Daily Weather History Graph

Search for Another Location

Airport:

Trip Planner

Search our weather history database for the weather conditions in past years. The results will help you decide how hot, cold, wet, or windy it might be!

Date:

Astronomy

Jan. 07, 2013 Rise Set
Actual Time 7:03 AM MST 4:58 PM MST
Civil Twilight 6:35 AM MST 5:26 PM MST
Nautical Twilight 6:04 AM MST 5:57 PM MST
Astronomical Twilight 5:33 AM MST 6:28 PM MST
Moon 2:32 AM MST (1/7) 1:09 PM MST (1/7)
Length of Visible Light 10h 50m
Length of Day
9h 55m
Waning Crescent, 22% of the Moon is Illuminated
Jan 7
Waning Crescent
Jan 11
New
Jan 18
First Quarter
Jan 26
Full
Feb 3
Last Quarter

Hourly Weather History & Observations

Time (MST) Temp. Windchill Dew Point Humidity Pressure Visibility Wind Dir Wind Speed Gust Speed Precip Events Conditions
12:53 AM 30.9 °F 24.3 °F 19.0 °F 61% 30.16 in 10.0 mi SW 6.9 mph - N/A   Clear
1:53 AM 32.0 °F 25.6 °F 19.0 °F 59% 30.15 in 10.0 mi SSW 6.9 mph - N/A   Clear
2:53 AM 32.0 °F 24.8 °F 19.9 °F 61% 30.14 in 10.0 mi SW 8.1 mph - N/A   Clear
3:53 AM 30.0 °F 24.1 °F 19.0 °F 64% 30.12 in 10.0 mi SSW 5.8 mph - N/A   Clear
4:53 AM 30.0 °F - 21.0 °F 69% 30.11 in 10.0 mi Calm Calm - N/A   Clear
5:53 AM 28.9 °F - 19.9 °F 69% 30.14 in 10.0 mi Calm Calm - N/A   Clear
6:53 AM 27.0 °F - 19.9 °F 75% 30.15 in 10.0 mi Calm Calm - N/A   Clear
7:53 AM 30.0 °F - 19.9 °F 66% 30.17 in 10.0 mi Calm Calm - N/A   Clear
8:53 AM 33.1 °F 28.7 °F 21.9 °F 64% 30.15 in 10.0 mi SW 4.6 mph - N/A   Clear
9:53 AM 36.0 °F 33.3 °F 23.0 °F 59% 30.14 in 10.0 mi West 3.5 mph - N/A   Clear
10:53 AM 41.0 °F 39.0 °F 21.9 °F 47% 30.10 in 10.0 mi Variable 3.5 mph - N/A   Clear
12:53 PM 48.9 °F - 21.9 °F 35% 29.98 in 10.0 mi WSW 5.8 mph - N/A   Clear
1:53 PM 51.1 °F - 19.9 °F 29% 29.94 in 10.0 mi South 8.1 mph - N/A   Clear
2:53 PM 52.0 °F - 19.9 °F 28% 29.93 in 10.0 mi SW 5.8 mph - N/A   Clear
3:53 PM 52.0 °F - 21.9 °F 31% 29.94 in 10.0 mi South 10.4 mph - N/A   Clear
4:53 PM 46.0 °F 41.9 °F 21.9 °F 39% 29.96 in 10.0 mi SSE 8.1 mph - N/A   Clear
5:53 PM 42.1 °F 39.2 °F 21.9 °F 45% 29.97 in 10.0 mi South 4.6 mph - N/A   Clear
6:53 PM 39.9 °F - 21.9 °F 49% 29.98 in 10.0 mi Calm Calm - N/A   Clear
7:53 PM 36.0 °F 29.6 °F 21.0 °F 55% 29.99 in 10.0 mi SSW 8.1 mph - N/A   Clear
8:53 PM 32.0 °F 24.8 °F 21.0 °F 64% 29.98 in 10.0 mi SW 8.1 mph - N/A   Clear
9:53 PM 32.0 °F 26.4 °F 21.9 °F 66% 29.96 in 10.0 mi WSW 5.8 mph - N/A   Clear
10:53 PM 35.1 °F 26.4 °F 23.0 °F 61% 29.94 in 10.0 mi WSW 12.7 mph - N/A   Clear
11:53 PM 34.0 °F 26.6 °F 23.0 °F 64% 29.91 in 10.0 mi SW 9.2 mph - N/A   Clear